Wind_Speed
48 46 43 40 37 34 30 27 26 27 28 30 31 32 33 36 38 39 37 39 47 54 57 64 65 56 59 62 65 69 70 70 73 76 76 75 74 75 75 75 78 77 74
52 51 48 45 42 39 37 34 33 32 33 34 36 36 36 38 38 38 39 42 43 45 53 59 68 61 56 57 60 67 69 63 68 75 76 74 72 74 75 75 76 75 74
53 53 53 51 48 45 43 41 40 40 40 39 39 39 38 38 38 39 40 41 36 31 40 52 61 64 58 48 50 59 65 60 60 67 68 68 67 69 70 71 72 73 72
54 52 51 51 51 50 48 46 45 44 44 42 41 40 39 37 37 36 36 35 32 29 36 45 46 50 58 52 48 50 53 54 49 52 54 57 60 59 61 64 66 67 67
52 52 51 49 48 48 48 48 48 47 46 43 41 40 38 36 33 31 30 25 27 26 23 38 36 44 51 47 46 48 49 47 46 50 53 54 55 56 58 59 62 62 63
52 52 52 51 49 45 43 44 46 47 46 43 41 38 37 35 32 29 25 24 20 19 20 31 33 36 45 47 43 43 44 43 43 45 52 56 55 56 56 56 56 57 60
56 56 56 54 51 48 45 41 40 43 43 41 38 37 36 34 32 30 27 36 31 26 25 31 31 29 37 44 42 40 41 37 38 45 48 54 58 59 57 56 55 54 53
59 60 57 54 52 49 44 41 37 36 38 39 37 36 36 35 33 32 31 34 41 38 35 33 34 30 27 34 38 40 44 44 42 45 45 50 56 56 53 51 49 48 47
58 60 57 55 54 50 44 38 34 31 30 34 37 37 37 36 36 36 36 35 36 39 42 41 39 35 32 34 37 42 43 41 43 46 45 47 50 50 54 55 52 50 49
59 61 60 56 55 50 44 38 32 28 26 26 32 37 39 39 40 40 41 39 38 38 40 43 45 44 43 42 42 44 47 46 45 48 49 48 48 49 49 50 51 51 49
62 61 59 56 52 49 45 41 35 30 26 23 25 33 39 42 43 44 45 43 41 40 39 41 45 47 46 46 47 47 50 51 49 50 51 50 50 51 52 51 50 50 48
65 62 58 55 51 47 44 42 39 33 28 23 22 26 35 42 44 46 48 48 45 43 41 40 41 45 50 51 51 48 49 52 53 54 53 52 52 51 52 51 50 50 50
64 62 59 55 51 48 45 42 39 35 31 26 22 22 27 36 44 47 49 49 48 45 45 44 41 42 45 48 49 47 48 50 51 52 53 53 52 51 51 50 51 51 52
61 61 60 57 53 50 48 45 40 35 31 28 25 22 23 28 36 45 49 49 49 48 48 48 46 44 45 45 47 48 49 48 48 48 49 50 51 50 49 48 48 47 47
60 60 61 60 57 52 48 45 41 36 32 29 26 22 21 22 26 34 44 46 48 50 50 51 50 49 47 46 46 48 51 50 48 47 48 48 48 48 49 49 46 43 42
60 60 61 62 60 55 50 44 41 38 33 29 27 25 21 20 21 24 31 40 47 52 53 52 53 52 51 50 49 50 51 51 51 51 50 50 49 48 48 47 47 45 41
58 61 63 62 62 58 52 46 40 37 34 29 26 24 22 19 19 20 23 28 36 47 52 53 53 55 56 55 54 53 52 52 52 53 51 50 49 48 47 46 45 43 40
56 60 63 63 63 62 56 49 43 36 30 28 23 21 21 19 18 18 19 21 24 33 43 51 54 56 57 58 58 57 56 55 54 53 52 50 48 48 47 46 44 41 39
54 56 59 63 63 65 65 58 50 41 33 27 23 19 17 16 16 17 17 17 18 22 29 39 49 55 58 59 60 60 60 59 58 56 55 53 51 50 49 47 45 43 41
52 55 58 61 64 65 66 65 58 48 39 31 25 20 15 12 11 12 13 14 14 16 19 25 34 45 54 59 61 62 62 62 61 60 59 57 56 55 53 50 48 46 44
53 55 58 60 62 64 66 66 66 58 46 38 30 23 16 12 9 8 8 10 12 12 13 16 21 29 39 50 58 62 64 65 64 64 64 63 63 61 58 56 54 51 49
57 55 56 59 61 62 63 65 66 65 59 48 38 30 22 16 11 8 6 7 10 10 10 11 13 17 23 32 43 53 60 64 66 68 67 67 67 66 64 62 60 58 55
58 57 56 57 59 60 60 60 62 63 62 61 54 44 35 26 19 13 10 10 10 9 7 6 8 10 14 18 25 34 45 55 63 67 69 70 70 69 68 67 65 63 61
57 59 57 56 57 59 60 60 60 60 61 60 59 57 53 46 38 30 24 20 17 14 11 8 6 6 8 11 14 19 26 36 47 58 66 69 71 72 72 71 69 67 65
55 57 58 56 55 57 59 59 59 58 58 57 57 56 55 53 51 49 46 42 38 33 28 21 15 10 5 3 7 10 14 20 27 37 49 60 66 70 71 72 72 71 70
53 54 56 57 56 56 58 59 59 57 56 55 54 54 54 53 52 51 49 47 45 43 40 37 34 29 23 18 11 4 3 7 13 19 27 37 48 59 66 69 71 72 72
Wind_Direction
320 320 318 316 315 314 311 302 291 284 280 279 279 281 277 275 278 280 276 274 269 259 247 228 220 227 233 237 237 237 240 242 240 239 238 238 238 238 238 240 241 242 241
315 313 311 308 305 302 298 295 291 288 285 282 280 280 278 278 280 278 275 283 281 266 249 226 220 214 219 223 230 234 237 237 237 239 240 238 235 235 236 237 239 241 241
315 312 309 305 300 296 292 289 286 286 286 284 281 278 276 276 277 278 275 283 278 258 235 216 218 219 225 222 224 228 232 237 239 240 240 239 237 235 234 235 237 238 240
320 317 313 307 301 295 289 285 283 282 283 282 279 276 275 273 273 276 274 279 265 224 212 207 211 229 229 231 234 232 233 237 243 242 243 241 238 236 235 235 236 237 238
331 330 327 321 311 302 293 286 281 278 278 277 274 272 271 269 267 269 272 268 252 222 215 201 210 228 228 235 235 234 236 238 242 244 238 236 238 236 235 235 236 237 238
336 335 332 329 324 316 302 288 280 276 273 271 269 266 264 262 260 258 256 233 236 232 228 213 203 213 220 221 224 223 227 229 232 234 231 230 232 237 238 237 237 239 243
344 342 339 334 328 322 317 305 286 273 268 265 263 260 259 256 253 252 244 229 229 227 222 220 222 228 230 233 237 231 227 225 228 229 231 233 233 233 237 239 239 243 243
344 342 340 339 337 333 324 316 307 289 269 258 253 252 252 251 247 244 241 234 236 237 236 236 237 234 228 233 237 237 235 234 235 231 235 237 235 234 234 237 243 243 239
344 343 340 339 338 337 334 326 315 304 288 266 250 244 244 246 244 239 238 237 239 240 241 244 241 239 235 231 230 233 234 234 233 234 241 238 233 233 237 238 240 241 242
344 343 341 339 339 338 336 335 327 316 300 282 260 247 242 241 241 239 235 233 236 241 242 240 236 235 235 236 233 231 230 228 231 235 238 237 234 230 229 230 235 239 240
344 343 342 341 340 340 339 338 334 325 313 296 274 255 246 243 241 241 238 233 231 236 240 240 236 234 232 234 232 230 225 223 225 230 231 233 232 230 229 230 234 238 240
346 345 343 341 340 339 338 337 335 329 320 307 289 268 251 245 243 242 242 238 232 232 235 235 235 233 233 234 234 229 222 222 223 226 228 231 232 231 231 234 237 239 242
349 350 350 348 344 340 337 336 333 329 325 318 302 282 264 249 243 242 242 242 239 232 232 232 231 232 231 230 228 224 222 222 224 226 228 231 233 234 234 235 238 243 245
354 354 355 353 349 343 338 335 331 328 324 319 313 299 278 261 249 243 241 241 241 238 233 230 230 228 226 224 223 222 221 222 224 226 229 232 233 234 233 235 238 243 246
356 355 356 354 351 347 342 337 332 328 323 317 313 306 295 278 261 250 243 240 241 240 237 232 230 230 229 226 224 222 223 225 227 228 230 232 231 231 232 235 238 242 244
358 357 354 353 352 349 345 341 335 330 325 318 313 309 301 290 279 266 253 243 238 238 237 235 232 230 229 229 227 226 225 226 228 228 228 229 229 230 233 236 239 240 240
1 0 359 358 357 353 348 344 340 332 326 322 313 306 301 295 288 279 268 257 245 239 238 236 234 232 230 229 228 228 227 227 227 228 228 228 228 230 234 237 239 239 240
0 1 4 4 4 3 358 353 349 345 336 326 319 308 301 296 291 287 281 271 258 246 241 237 235 234 233 231 230 229 229 228 228 228 229 228 228 230 232 234 237 239 240
360 0 3 5 7 8 8 4 1 357 353 346 335 323 309 299 292 288 286 281 271 257 247 241 236 234 234 233 233 232 231 231 230 230 230 229 229 230 231 232 234 235 236
2 3 5 7 11 13 13 13 10 7 5 1 355 346 333 318 305 296 289 286 280 269 258 248 241 238 235 234 234 234 234 233 232 232 232 232 232 232 232 232 233 234 234
8 8 9 10 12 14 16 17 19 18 15 13 10 7 359 348 339 323 306 299 297 291 275 260 249 243 239 237 235 234 234 234 234 233 233 233 234 235 235 235 235 235 234
13 12 12 12 14 15 17 19 21 23 26 25 25 24 22 14 5 355 332 309 307 310 301 281 264 251 244 241 238 237 235 235 235 235 235 234 234 235 237 238 237 236 235
15 16 15 15 17 18 18 20 23 26 29 33 35 35 33 30 29 23 10 355 349 345 328 295 271 259 252 244 240 238 237 236 235 235 236 236 235 235 236 237 237 238 237
17 19 20 18 20 21 22 23 25 28 31 34 37 40 43 45 45 43 39 32 26 19 7 349 318 282 264 255 247 241 238 237 237 237 236 236 236 236 236 236 236 237 238
18 21 23 22 22 24 25 26 27 29 32 34 36 39 42 44 47 48 50 50 50 49 47 44 40 32 15 300 262 253 249 245 240 238 237 237 237 237 237 237 237 237 237
21 23 25 25 24 27 28 28 29 31 32 34 36 38 40 41 43 45 46 48 49 50 51 52 53 54 55 55 51 34 297 268 258 249 243 239 238 237 237 237 237 237 238
Height
5506 5498 5491 5486 5480 5475 5471 5467 5465 5463 5462 5461 5460 5459 5458 5458 5457 5456 5455 5454 5452 5452 5458 5470 5481 5490 5499 5506 5512 5521 5528 5536 5546 5555 5568 5578 5585 5591 5598 5604 5614 5623 5631
5495 5488 5481 5476 5471 5466 5462 5458 5455 5453 5451 5449 5447 5446 5444 5443 5443 5441 5440 5439 5434 5432 5436 5447 5461 5472 5481 5485 5492 5501 5510 5517 5526 5535 5547 5557 5565 5572 5579 5587 5597 5606 5614
5482 5474 5467 5461 5456 5453 5449 5446 5443 5440 5438 5436 5434 5432 5430 5429 5429 5427 5425 5423 5420 5419 5419 5428 5443 5453 5460 5466 5474 5482 5492 5502 5510 5519 5529 5538 5546 5553 5562 5570 5579 5588 5596
5469 5460 5452 5445 5439 5434 5431 5428 5426 5424 5423 5421 5419 5417 5415 5415 5415 5414 5411 5408 5405 5406 5412 5421 5431 5440 5448 5455 5462 5469 5477 5488 5497 5506 5515 5522 5531 5539 5546 5554 5562 5570 5578
5457 5447 5438 5429 5422 5417 5413 5409 5406 5405 5405 5405 5403 5402 5401 5401 5402 5402 5400 5398 5397 5400 5406 5414 5424 5431 5437 5442 5449 5456 5464 5474 5482 5491 5500 5508 5515 5523 5532 5540 5546 5552 5559
5450 5439 5428 5417 5407 5400 5394 5390 5388 5386 5386 5387 5387 5386 5386 5387 5389 5391 5391 5392 5392 5396 5399 5405 5413 5416 5422 5431 5439 5446 5455 5462 5469 5477 5486 5494 5502 5510 5517 5524 5531 5537 5543
5441 5430 5418 5406 5394 5385 5378 5373 5369 5367 5367 5370 5371 5371 5372 5373 5377 5381 5383 5385 5385 5388 5391 5394 5399 5404 5412 5421 5429 5437 5444 5449 5457 5466 5473 5480 5489 5497 5505 5512 5517 5523 5529
5434 5422 5410 5398 5386 5375 5365 5358 5353 5350 5350 5352 5355 5357 5358 5360 5364 5369 5372 5375 5378 5381 5383 5387 5391 5398 5404 5410 5418 5425 5431 5439 5446 5454 5462 5468 5474 5481 5489 5496 5501 5507 5513
5427 5414 5402 5390 5378 5367 5357 5348 5341 5337 5335 5336 5339 5342 5344 5347 5350 5355 5359 5364 5367 5371 5375 5378 5383 5388 5394 5399 5407 5415 5421 5427 5434 5442 5448 5454 5460 5467 5475 5482 5488 5494 5499
5421 5407 5393 5380 5369 5358 5348 5341 5333 5328 5324 5323 5325 5328 5331 5333 5336 5340 5346 5351 5356 5360 5363 5367 5373 5379 5384 5389 5395 5402 5409 5415 5422 5430 5436 5443 5448 5455 5462 5469 5475 5482 5487
5413 5399 5386 5373 5361 5351 5341 5333 5326 5321 5316 5313 5312 5314 5317 5320 5323 5326 5331 5338 5345 5348 5351 5354 5358 5365 5372 5377 5383 5388 5395 5403 5410 5418 5424 5431 5437 5443 5449 5456 5462 5468 5474
5407 5392 5379 5366 5354 5345 5336 5327 5320 5313 5308 5305 5302 5301 5302 5306 5309 5313 5316 5322 5330 5336 5339 5343 5346 5352 5358 5364 5370 5376 5383 5391 5398 5405 5412 5418 5425 5431 5437 5443 5449 5455 5461
5401 5387 5373 5360 5348 5338 5330 5322 5314 5306 5300 5295 5292 5290 5289 5291 5294 5298 5302 5308 5314 5322 5326 5330 5335 5340 5345 5351 5357 5364 5371 5378 5385 5392 5399 5406 5412 5418 5424 5431 5437 5442 5447
5398 5383 5369 5356 5343 5331 5320 5312 5305 5298 5291 5286 5282 5280 5278 5277 5279 5283 5287 5293 5300 5306 5311 5317 5323 5328 5334 5339 5345 5352 5359 5366 5373 5380 5387 5393 5399 5406 5412 5419 5424 5429 5433
5395 5380 5366 5352 5338 5326 5314 5303 5295 5288 5281 5277 5273 5270 5268 5266 5265 5267 5271 5278 5282 5288 5294 5301 5308 5314 5320 5326 5333 5340 5347 5354 5361 5369 5375 5381 5387 5393 5400 5406 5411 5416 5420
5393 5378 5364 5349 5334 5320 5308 5297 5285 5277 5271 5266 5262 5260 5258 5256 5255 5255 5257 5259 5265 5269 5276 5284 5292 5299 5305 5312 5319 5327 5334 5341 5348 5356 5363 5369 5375 5380 5387 5393 5398 5404 5408
5391 5378 5363 5347 5331 5315 5301 5289 5279 5269 5260 5256 5252 5249 5247 5246 5246 5245 5245 5246 5250 5253 5260 5268 5275 5282 5290 5298 5305 5313 5321 5328 5335 5342 5349 5356 5362 5368 5375 5381 5386 5391 5397
5391 5378 5363 5348 5332 5315 5298 5284 5273 5263 5254 5247 5243 5240 5238 5237 5237 5236 5235 5236 5237 5240 5243 5250 5258 5266 5274 5282 5290 5298 5306 5314 5321 5329 5336 5343 5349 5356 5363 5370 5375 5380 5385
5392 5381 5366 5351 5334 5316 5299 5282 5268 5257 5248 5241 5236 5233 5230 5229 5229 5228 5228 5228 5228 5229 5231 5235 5241 5249 5257 5266 5274 5282 5291 5299 5307 5314 5322 5329 5336 5343 5351 5359 5364 5370 5375
5394 5381 5367 5353 5338 5322 5305 5287 5271 5257 5246 5238 5232 5228 5225 5223 5222 5222 5221 5221 5221 5221 5222 5224 5228 5233 5240 5248 5257 5266 5275 5283 5291 5299 5307 5315 5322 5330 5338 5345 5352 5358 5364
5396 5383 5370 5357 5343 5327 5312 5296 5279 5262 5248 5239 5231 5225 5222 5220 5219 5218 5218 5217 5216 5216 5216 5217 5219 5222 5226 5233 5240 5249 5258 5266 5275 5283 5291 5299 5307 5315 5323 5331 5338 5345 5352
5399 5387 5375 5363 5349 5335 5320 5304 5289 5273 5257 5244 5234 5227 5223 5220 5218 5217 5216 5215 5214 5213 5212 5212 5213 5214 5217 5220 5226 5233 5240 5249 5258 5266 5274 5283 5291 5299 5307 5315 5323 5331 5339
5405 5392 5380 5368 5356 5343 5329 5315 5301 5287 5272 5258 5245 5236 5229 5224 5220 5218 5217 5215 5214 5212 5210 5209 5209 5209 5210 5213 5216 5220 5225 5232 5239 5248 5256 5265 5274 5282 5291 5300 5308 5315 5324
5411 5399 5386 5376 5365 5353 5338 5325 5312 5300 5287 5275 5263 5252 5243 5235 5229 5225 5221 5217 5214 5211 5209 5208 5207 5207 5207 5208 5210 5212 5215 5219 5224 5231 5238 5246 5255 5264 5273 5283 5291 5299 5307
5418 5407 5395 5385 5374 5361 5348 5336 5324 5313 5301 5290 5280 5270 5260 5252 5244 5238 5232 5226 5221 5217 5213 5210 5208 5206 5206 5206 5207 5208 5209 5211 5214 5217 5222 5229 5237 5246 5256 5265 5273 5282 5290
5425 5415 5404 5394 5382 5371 5359 5347 5336 5325 5314 5304 5294 5285 5276 5268 5260 5253 5246 5240 5234 5228 5224 5220 5216 5213 5211 5209 5208 5208 5208 5208 5209 5210 5212 5216 5220 5227 5236 5245 5253 5263 5272